Theta_e
342 339 347 348 360 360 363 361 356 354 352 346 345 348 350 351 353 354 348 349 345 346 348 350 350 351 350 350 349 350 351 351 347 351 351 352 352 352 352 352 352 352 353 352 352 352 352 351 350
338 347 349 356 364 367 364 358 359 354 349 346 348 350 352 355 350 349 348 346 345 348 350 350 348 348 349 349 349 349 349 349 347 346 348 351 352 351 352 353 353 352 352 352 351 351 350 349 348
339 346 355 361 358 366 362 358 354 350 346 347 348 349 352 355 350 348 348 346 348 349 346 344 342 350 350 350 351 350 349 348 349 350 351 348 347 353 353 353 352 348 350 351 351 350 345 345 346
349 353 355 366 362 360 359 355 348 349 348 348 350 354 350 347 347 348 348 345 344 345 346 345 346 351 347 351 351 351 350 351 350 351 352 351 350 353 353 353 353 352 351 350 347 345 343 344 344
351 355 362 368 364 355 354 347 346 348 350 350 350 353 350 346 348 348 347 346 340 346 348 346 349 350 350 351 351 351 348 349 350 350 351 352 352 352 353 353 353 353 346 342 339 342 344 343 345
357 358 366 369 364 361 358 348 348 350 350 350 351 350 348 346 346 347 348 346 343 347 348 349 346 349 351 351 350 351 350 352 351 351 352 351 352 351 352 353 353 353 342 340 338 343 342 344 347
359 362 367 363 365 364 362 350 349 351 350 350 346 351 346 344 347 349 349 348 348 348 350 350 349 351 351 352 351 350 351 350 350 349 351 352 352 352 352 353 354 353 352 347 336 339 341 344 345
358 359 359 363 364 368 358 351 347 350 351 344 344 350 348 345 349 350 350 346 346 349 348 348 349 351 348 350 351 351 351 351 351 350 351 351 352 351 352 350 352 351 348 336 334 338 342 341 343
352 361 360 358 361 364 360 357 356 355 348 346 345 345 345 348 349 348 349 350 349 348 347 347 344 349 347 348 351 351 350 348 344 350 350 348 349 348 348 347 347 341 337 332 336 339 340 339 341
355 355 357 354 357 361 361 358 356 353 349 350 346 347 348 348 347 348 349 350 350 351 349 346 345 346 347 349 345 345 343 343 344 346 347 347 347 344 344 345 344 344 340 336 336 339 341 341 342
348 353 352 348 350 350 360 359 357 352 357 347 349 349 347 347 347 349 348 349 350 350 350 350 349 346 345 343 342 343 343 344 345 346 348 346 344 342 341 343 344 346 347 347 346 346 347 348 349
352 354 355 358 357 355 360 358 358 355 354 345 344 346 348 348 347 347 347 348 349 350 351 351 350 350 345 346 346 348 346 346 347 347 348 345 343 340 340 343 346 347 346 345 345 347 346 343 341
355 356 353 355 357 358 357 359 357 354 349 345 343 347 348 345 345 347 348 349 350 350 351 349 350 349 347 347 348 348 347 346 347 348 340 339 339 343 345 346 344 344 345 343 345 345 345 342 341
334 357 358 356 356 357 359 356 354 352 348 348 343 343 346 345 345 347 349 350 349 350 350 351 348 347 341 347 347 346 346 347 346 345 346 346 345 344 346 347 346 347 346 342 343 347 345 342 343
356 359 352 358 356 358 354 357 356 357 356 346 344 343 342 345 347 348 350 349 349 350 348 347 348 344 334 347 346 347 347 345 347 349 347 345 344 346 345 345 346 347 344 344 344 347 346 344 342
348 355 364 359 353 356 351 360 357 356 355 349 345 344 341 348 348 348 349 349 351 350 347 348 345 338 344 345 344 344 347 346 347 347 345 346 345 346 348 347 347 345 345 348 347 343 345 345 345
325 352 358 356 354 354 354 359 355 355 357 355 350 344 342 345 348 348 349 349 351 348 350 349 349 348 347 347 340 343 347 346 348 348 346 349 347 347 347 347 345 346 347 346 346 347 346 344 344
326 341 357 363 358 355 356 356 357 356 356 353 350 350 344 345 345 347 348 350 349 350 350 348 349 348 347 348 343 341 345 347 347 347 347 348 348 345 346 348 344 346 346 346 346 346 348 347 345
323 334 358 359 356 358 357 356 357 356 354 350 352 352 344 346 343 343 347 347 347 348 347 350 348 350 349 349 346 345 342 348 348 349 348 350 347 348 347 350 344 348 348 345 347 348 349 345 345
322 328 353 359 353 356 357 357 355 356 354 352 352 350 342 345 343 343 347 346 345 345 348 348 348 350 349 351 349 349 349 349 349 348 349 348 348 346 347 347 344 348 347 348 348 349 347 347 342
320 325 354 360 357 355 356 360 356 354 352 352 352 350 349 344 343 343 346 347 345 345 348 348 348 349 348 352 350 350 349 351 350 349 351 350 349 348 349 347 349 350 349 347 349 351 350 351 349
318 322 348 354 355 355 353 360 355 355 356 355 354 351 351 342 341 342 345 347 345 346 349 348 348 347 347 350 352 349 350 350 350 349 349 351 350 351 351 346 349 351 350 348 349 352 350 351 353
321 348 351 349 352 352 354 357 348 353 358 355 353 351 350 346 341 341 345 346 346 347 349 349 348 347 348 354 351 348 350 350 351 351 351 351 350 350 350 350 351 351 350 348 351 351 350 350 352
343 347 347 349 349 356 354 355 359 355 353 354 353 351 351 346 348 341 345 346 346 348 350 350 349 348 351 352 353 345 349 350 351 351 351 351 351 351 350 352 350 349 349 347 352 351 347 348 352
330 339 340 351 351 349 347 356 353 351 350 351 352 350 348 345 346 348 344 345 346 349 350 350 351 350 348 352 352 351 348 347 351 350 352 352 351 351 351 351 349 345 349 348 351 350 348 348 347
328 328 336 346 346 347 343 357 362 347 346 344 346 350 349 351 350 351 349 345 346 348 349 352 351 351 350 352 352 351 348 350 349 350 351 351 350 352 351 351 352 350 347 349 349 352 350 351 348
326 333 328 336 331 346 359 359 353 350 349 351 349 351 350 349 351 350 350 350 346 347 349 350 351 352 351 352 351 351 349 350 350 348 349 351 352 352 351 351 351 351 349 350 348 349 350 348 348
328 327 329 328 335 340 357 361 361 355 354 350 347 347 347 348 349 349 349 349 349 348 350 350 354 354 353 353 355 354 350 346 346 344 350 352 351 350 349 351 351 350 349 351 352 351 349 351 349
326 326 325 324 325 330 354 358 352 351 347 344 342 344 345 346 344 344 344 347 347 347 348 351 352 353 349 349 351 353 355 353 347 353 353 353 350 350 347 350 348 350 352 353 354 351 353 352 350
324 325 323 326 328 337 346 359 344 343 341 340 340 340 343 343 342 340 341 342 344 343 344 343 343 343 341 341 345 346 348 353 353 354 353 351 351 350 343 345 350 351 353 354 353 353 351 352 351
Wind_Speed
9 11 6 3 3 2 3 4 6 8 12 9 18 7 8 8 4 4 25 18 27 25 22 19 18 17 17 16 16 16 16 16 16 16 17 18 18 20 20 19 19 19 19 18 19 20 20 20 20
12 11 4 1 1 2 1 10 13 13 12 20 9 15 7 4 9 16 17 29 28 27 22 20 18 16 16 15 16 15 14 15 15 15 16 17 18 20 20 19 19 19 19 18 19 19 19 18 17
12 7 1 1 1 1 8 10 19 17 15 16 7 10 5 7 16 16 26 33 30 25 22 19 18 16 15 15 16 16 15 15 16 15 16 18 18 18 18 18 17 19 18 17 17 18 19 17 18
3 4 1 2 2 4 4 14 18 17 13 13 16 12 9 11 13 21 34 32 29 26 22 19 18 16 17 14 15 14 15 15 14 15 16 15 18 17 18 16 16 16 17 16 18 18 18 17 17
1 1 2 3 6 6 3 16 22 17 6 13 21 11 7 11 32 37 36 31 32 27 23 19 17 15 16 15 14 14 14 13 14 14 15 15 17 16 15 14 14 15 16 17 18 20 18 17 15
1 1 1 4 9 11 9 11 17 20 17 18 20 15 6 32 34 33 35 32 29 29 23 20 17 16 15 15 15 14 14 14 14 15 16 16 17 16 16 13 13 14 15 16 17 18 19 18 21
3 2 4 0 16 14 8 10 17 18 20 15 18 16 14 26 32 36 36 32 29 27 24 20 17 16 14 14 15 15 14 14 13 14 16 17 16 15 15 14 14 13 12 12 15 16 16 17 20
5 2 8 7 8 10 6 11 13 16 12 17 22 11 20 27 31 31 33 32 28 26 24 21 18 18 16 16 15 15 15 14 13 13 14 16 16 15 14 16 14 13 12 13 15 17 15 16 17
4 3 1 5 5 4 3 19 4 3 17 13 3 20 25 37 34 30 27 25 26 23 22 21 19 18 16 16 14 15 15 14 14 13 14 16 17 16 16 16 15 14 14 15 15 16 15 16 14
4 2 5 6 3 6 10 8 11 12 17 10 18 22 33 37 33 28 24 23 21 25 22 22 20 18 17 16 16 17 17 16 15 16 16 17 15 15 16 16 15 14 14 14 12 10 9 8 6
7 6 7 7 11 9 10 11 7 16 6 21 24 26 26 31 30 27 22 26 29 28 25 22 20 19 16 17 19 17 17 16 14 14 13 13 13 14 16 17 14 12 10 9 6 5 2 1 4
3 3 5 1 5 8 5 7 6 6 13 19 22 21 27 21 22 25 23 23 25 27 26 25 22 20 18 17 15 14 14 15 16 14 12 12 13 16 16 13 10 7 5 6 9 6 7 7 10
5 8 5 5 6 10 8 8 7 7 10 14 20 24 20 16 23 23 26 26 29 27 28 26 25 20 20 19 16 13 12 14 14 14 15 16 15 15 12 11 10 10 7 4 4 6 7 13 17
8 11 10 7 5 8 11 11 4 9 7 12 18 18 18 20 24 23 25 26 24 30 26 26 22 22 17 21 15 16 16 15 16 15 16 11 11 12 9 9 8 8 6 8 9 9 7 9 14
14 6 4 8 3 4 14 3 11 7 2 20 16 11 17 22 27 29 28 30 32 28 24 20 21 22 19 18 17 18 14 16 14 14 15 12 13 11 9 7 12 9 8 6 4 6 4 4 6
6 4 5 2 3 8 1 4 8 5 8 13 16 9 9 22 29 28 29 31 31 29 23 19 17 17 18 17 15 15 14 18 14 11 19 12 12 9 7 12 12 9 8 3 3 5 3 5 6
1 6 6 5 11 4 2 3 3 5 7 9 8 6 10 17 27 29 28 33 32 29 26 24 17 18 16 12 14 15 17 17 15 15 17 13 11 10 8 11 8 8 5 3 1 4 4 3 7
4 4 3 8 16 11 4 4 10 4 9 10 7 4 14 18 15 27 30 32 33 29 28 23 19 17 14 9 11 19 17 14 13 13 15 14 12 11 8 7 6 4 4 4 2 5 7 4 2
2 8 3 7 9 9 4 6 9 5 11 15 13 8 12 18 26 30 35 36 35 32 28 25 23 21 17 15 15 13 16 14 16 14 12 14 13 12 9 8 7 5 3 3 4 6 8 3 0
5 7 4 11 8 3 5 7 5 6 11 16 14 6 12 15 14 22 31 32 34 32 27 30 24 22 19 12 18 15 15 14 14 14 13 13 11 11 12 10 10 7 3 2 3 6 6 4 5
9 6 6 7 10 12 6 3 2 1 13 11 11 7 7 21 18 16 27 29 32 31 28 33 28 23 20 13 17 14 14 12 11 16 12 13 11 10 12 11 10 7 3 5 2 4 7 8 6
9 6 12 18 6 4 6 3 5 7 9 17 16 9 5 14 18 19 25 26 30 33 30 35 28 22 19 13 17 17 16 17 15 15 15 12 12 10 10 12 10 8 7 6 2 1 5 9 14
11 7 14 15 4 7 5 3 3 13 10 13 15 11 3 6 13 19 26 31 31 35 35 34 28 22 20 13 12 15 17 13 14 15 16 14 16 12 11 11 11 9 6 8 4 3 2 8 12
11 14 10 5 4 1 9 4 4 10 13 13 12 12 5 5 9 8 31 32 30 31 35 34 29 25 23 15 14 16 14 16 14 19 17 15 16 13 13 11 11 10 9 7 5 2 1 4 7
7 6 2 4 3 6 10 5 5 8 10 12 16 17 4 4 8 7 15 26 26 29 33 35 32 26 25 19 16 15 15 18 17 20 17 15 14 13 12 12 10 11 9 10 7 4 2 1 2
4 7 6 4 4 5 5 6 1 3 4 9 6 9 8 4 4 5 4 24 29 31 32 31 33 28 28 22 17 16 14 13 20 19 16 16 15 13 14 13 11 8 9 10 9 6 5 3 3
5 2 3 5 2 4 5 3 5 5 6 5 4 5 7 7 4 7 9 14 18 21 27 33 33 28 27 24 20 17 16 11 16 17 17 17 16 17 14 16 14 10 12 10 10 9 6 6 5
8 4 4 3 4 4 2 8 7 10 9 7 7 6 8 5 2 3 7 16 16 7 20 22 25 24 20 20 18 18 17 14 13 15 18 16 16 20 14 18 16 13 13 13 11 10 9 8 6
3 3 5 3 4 5 4 0 5 13 12 10 6 6 7 9 3 5 6 13 19 12 14 23 23 22 14 9 10 15 19 19 18 15 10 14 16 16 16 18 16 15 15 15 14 12 9 8 9
4 4 5 4 4 3 4 3 7 13 11 11 6 2 5 5 8 7 9 12 18 15 11 19 23 20 11 3 5 9 18 19 21 20 15 15 14 14 10 16 16 17 16 15 15 14 14 12 11
Wind_Direction
155 129 116 302 4 56 242 186 145 160 134 157 158 160 188 140 151 161 141 154 147 141 138 135 130 127 127 125 123 124 122 117 120 115 112 109 108 108 108 109 107 108 107 107 108 111 109 107 110
150 124 35 312 1 168 45 94 102 102 110 112 98 97 66 95 76 116 120 148 144 137 137 136 135 131 126 129 127 126 127 127 120 123 117 115 113 110 108 110 107 110 112 111 113 115 111 111 111
165 135 86 345 160 321 113 109 114 116 123 121 116 65 79 105 108 131 142 145 140 138 139 136 134 131 128 127 128 125 128 128 128 125 125 121 117 113 114 114 112 110 111 117 119 120 118 109 104
160 137 153 246 140 291 127 134 121 107 87 95 113 81 93 102 122 134 144 143 139 140 137 138 137 134 134 132 128 122 124 124 125 128 124 122 117 114 114 113 112 116 114 119 126 125 119 114 110
202 298 148 206 168 197 222 132 127 123 94 121 115 114 87 104 133 138 139 145 142 143 142 139 136 136 132 127 127 123 124 123 128 130 127 120 120 119 119 117 116 121 121 122 128 130 120 112 114
326 302 242 186 125 99 82 127 109 104 115 113 101 115 99 133 136 141 147 148 145 143 141 139 138 136 131 128 131 126 125 121 129 127 128 131 129 129 125 121 122 123 123 121 132 136 126 112 108
1 72 319 250 118 90 89 121 112 113 121 127 128 118 133 143 144 145 149 146 146 142 141 141 138 133 130 126 125 127 124 120 125 127 128 130 129 128 125 121 125 123 123 118 131 141 133 117 121
142 74 2 319 105 83 86 106 110 122 124 124 125 140 153 146 142 139 144 145 146 145 145 142 141 140 135 132 131 132 128 130 131 129 130 131 130 130 123 121 120 117 116 120 129 140 137 127 121
118 97 176 259 106 100 339 112 35 324 131 146 133 136 142 138 136 133 136 138 147 150 149 145 143 142 137 135 133 132 132 129 131 133 137 138 138 134 131 125 119 114 113 119 128 137 141 137 132
129 130 197 223 98 179 174 130 124 150 145 112 114 127 135 138 141 143 145 145 154 156 153 147 146 145 145 141 139 136 134 133 133 130 136 135 138 138 133 127 124 120 116 117 122 133 145 146 150
176 181 202 224 236 244 157 132 130 149 141 157 141 143 144 141 147 148 153 156 164 157 155 153 149 144 143 148 140 135 136 135 148 145 148 142 143 143 138 133 133 130 126 119 124 169 185 278 245
134 202 172 57 123 176 132 116 102 170 172 157 139 141 144 152 151 151 154 156 160 163 156 160 159 154 152 147 153 156 152 143 143 142 165 161 152 146 140 132 134 124 100 99 112 64 57 86 99
197 170 194 119 102 108 102 103 127 135 141 154 142 143 155 149 140 161 153 150 160 164 162 164 168 159 162 155 154 166 153 161 153 161 156 152 153 156 152 144 127 111 109 124 96 89 76 109 111
235 144 138 107 100 136 127 124 126 173 198 179 160 149 162 158 153 147 150 150 158 154 159 160 171 172 154 168 165 162 166 166 170 162 162 168 182 183 182 172 161 123 120 100 109 56 75 106 116
134 97 46 104 154 114 106 47 148 140 219 167 171 171 155 164 155 158 158 153 152 162 162 167 179 188 189 173 168 174 168 174 173 177 177 168 169 164 171 177 187 174 135 117 91 42 83 143 137
146 88 111 98 232 173 60 163 167 105 143 187 175 182 131 146 153 163 158 155 156 161 163 166 163 161 157 161 167 171 168 170 162 151 160 159 170 155 139 161 161 154 159 139 53 56 47 196 201
331 160 136 145 237 213 195 152 184 165 137 173 169 182 130 154 156 162 161 159 162 164 168 172 158 162 158 156 166 179 174 173 172 155 155 159 149 151 150 174 159 160 177 143 56 46 45 55 220
191 92 184 168 190 193 182 175 137 182 147 163 210 281 142 152 156 155 155 159 162 164 164 162 169 164 166 163 172 171 177 181 173 176 171 176 173 169 168 157 172 193 129 152 80 39 28 22 233
323 324 136 115 157 167 179 128 143 162 160 169 222 257 172 162 159 149 155 159 165 169 166 169 170 171 173 179 174 173 182 176 177 181 185 183 183 177 192 173 179 198 148 98 51 30 28 55 239
253 218 137 104 44 141 126 96 83 176 175 174 207 315 170 158 161 148 150 160 163 163 171 169 171 174 178 185 181 175 174 178 187 184 176 177 173 181 191 193 182 201 175 138 77 32 21 344 6
261 178 206 141 107 47 110 127 118 9 162 187 243 298 307 158 159 155 154 163 161 162 170 175 176 176 175 173 180 180 171 165 179 178 176 180 179 173 179 186 178 191 189 185 137 36 16 16 12
257 209 178 150 152 161 234 214 192 183 166 195 218 258 307 183 163 161 158 162 166 169 172 174 177 181 180 184 190 186 177 175 178 184 181 182 175 169 161 180 189 185 185 175 104 69 48 47 34
244 152 145 136 94 120 212 108 267 161 194 199 220 251 237 328 176 161 163 167 172 171 174 176 178 183 178 177 200 186 170 178 181 186 185 180 179 173 180 178 177 185 184 159 129 148 99 61 58
125 99 62 53 97 230 187 150 201 184 196 184 204 262 226 322 341 207 169 170 174 174 177 178 180 187 186 193 198 191 186 173 180 187 186 189 190 183 185 189 199 200 199 186 164 167 152 73 61
156 122 69 33 33 234 132 139 247 201 162 178 190 210 220 307 314 316 177 172 170 174 180 182 183 186 186 189 188 196 207 190 179 178 185 189 188 190 193 199 207 205 207 199 194 208 225 244 25
162 153 158 147 184 243 115 201 227 66 80 89 90 86 30 314 224 136 169 182 174 178 181 180 186 186 182 188 191 192 192 204 201 191 188 192 193 197 203 207 213 225 217 202 207 230 242 247 288
264 93 160 140 32 122 124 66 63 97 67 92 130 109 74 42 41 172 83 117 165 182 182 186 189 187 187 190 193 196 200 206 189 195 197 199 205 203 200 204 209 221 216 218 215 231 252 251 274
136 171 54 3 148 216 254 160 155 169 141 111 75 62 87 85 124 50 111 87 96 153 193 179 182 184 186 199 201 206 209 213 214 207 211 215 220 210 206 206 205 206 211 212 220 231 246 260 251
20 73 72 111 135 168 141 200 286 164 136 109 83 99 105 107 181 118 86 91 107 132 155 166 167 167 152 162 194 210 217 226 229 221 232 221 226 221 209 200 203 206 212 221 224 232 228 245 251
147 140 113 121 272 105 105 82 80 111 121 121 128 93 96 96 90 77 73 99 114 122 103 127 130 120 100 92 204 239 231 230 232 234 222 213 217 209 216 204 204 207 214 222 225 234 235 240 259